Location: Guadanolo
(41.9167°N, 12.9333°E)
Time: 15:10:13
(UTC+00:00)

Cosmos 2219 - Pass Details

Date: 16 September 2019
Orbit: 834 x 859 km, 71.1° (Epoch: 19 October)

Event Time Altitude Azimuth Distance (km) Brightness Sun altitude
Rises 19:27:03 0° 208° (SSW) 3,417 6.4 -24.0°
Reaches altitude 10° 19:29:30 10° 210° (SSW) 2,486 5.6 -24.4°
Maximum altitude 19:35:13 74° 295° (WNW) 896 3.4 -25.4°
Drops below altitude 10° 19:40:59 10° 21° (NNE) 2,501 5.7 -26.3°
Sets 19:43:27 0° 23° (NNE) 3,440 6.5 -26.7°
